Regional Weather Roundup
Issued by NWS Charleston, SC

Current Version | Previous Version | Text Only | Print | Product List | Glossary On
Versions: 1 2 3 4 5 6 7 8 9 10 11 12 13 14 15 16 17 18 19 20 21 22 23 24 25 26 27 28 29 30 31 32 33 34 35 36 37 38 39 40 41 42 43 44 45 46 47 48 49 50
000 ASUS42 KCHS 250610 RWRCHS REGIONAL WEATHER ROUNDUP NATIONAL WEATHER SERVICE CHARLESTON SC 200 AM EDT FRI JUL 25 2014 NOTE: "FAIR" INDICATES FEW OR NO CLOUDS BELOW 12,000 FEET WITH NO SIGNIFICANT WEATHER AND/OR OBSTRUCTIONS TO VISIBILITY. NOT ALL STATIONS ARE QUALITY CONTROLLED BY THE NATIONAL WEATHER SERVICE. USE DATA WITH CAUTION...ESPECIALLY DEWPOINT OBSERVATIONS. SCZ027-030-031-034>040-042>050-250700- ...SOUTH CAROLINA... CITY SKY/WX TMP DP RH WIND PRES REMARKS N CHARLESTON PTCLDY 83 78 85 SW7 29.95S HX 93 6HR MIN TEMP: 83; 6HR MAX TEMP: 87; WATERFRONT PRK NOT AVBL FORT JOHNSON NOT AVBL MOUNT PLEASANT FAIR 82 81 94 CALM 29.95S HX 95 JOHNS ISLAND CLEAR 84 75 74 SW3 29.96S HX 92 PINOPOLIS N/A 82 75 78 SW6 29.87R MONCKS CORNER N/A 79 77 94 CALM 29.95S SUMMERVILLE NOT AVBL BEAUFORT MCAS PTCLDY 82 71 69 NW10 29.96S 6HR MIN TEMP: 82; 6HR MAX TEMP: 88; BEAUFORT ARPT FAIR 82 73 74 SW9 29.96S HILTON HEAD IS PTCLDY 82 73 74 SW7 29.98S GEORGETOWN NOT AVBL WALTERBORO NOT AVBL ORANGEBURG CLOUDY 79 72 79 CALM 29.95S 6HR MIN TEMP: 77; 6HR MAX TEMP: 88; BARNWELL FAIR 75 72 88 SW3 29.96S AIKEN FAIR 73 73 100 CALM 30.00S MANNING MOCLDY 79 N/A N/A CALM 29.95S KINGSTREE NOT AVBL COLUMBIA PTCLDY 79 71 76 W3 29.94S 6HR MIN TEMP: 79; 6HR MAX TEMP: 90; SUMTER MOCLDY 76 74 91 NE3 29.94R 6HR MIN TEMP: 75; 6HR MAX TEMP: 87; 6HR PCP: 0.11; FLORENCE PTCLDY 74 72 93 CALM 29.95R 6HR MIN TEMP: 74; 6HR MAX TEMP: 79; 6HR PCP: 0.67; MYRTLE BEACH PTCLDY 75 70 83 SW5 29.93F N MYRTLE BEACH MOCLDY 73 70 90 N6 29.93S 6HR MIN TEMP: 73; 6HR MAX TEMP: 85; $$ GAZ063-065-086>088-099>101-113>116-118-119-134-136>141-150-250700- ...GEORGIA... CITY SKY/WX TMP DP RH WIND PRES REMARKS SAVANNAH ARPT MOCLDY 80 71 74 SW7 29.98R 6HR MIN TEMP: 80; 6HR MAX TEMP: 90; HUNTER AAF PTCLDY 79 72 78 W8 29.96S 6HR MIN TEMP: 79; 6HR MAX TEMP: 88; FORT STEWART CLEAR 79 72 79 SW7 29.98R 6HR MIN TEMP: 79; 6HR MAX TEMP: 89; STATESBORO NOT AVBL SYLVANIA PTCLDY 79 75 88 SW3 29.98S CLAXTON FAIR 79 77 94 CALM 29.98S THOMSON CLEAR 75 75 100 CALM 30.01S AUGUSTA-BUSH PTCLDY 74 72 93 CALM 29.94F 6HR MIN TEMP: 74; 6HR MAX TEMP: 87; AUGUSTA-DANIEL CLEAR 80 71 74 NW5 29.97S SWAINSBORO FAIR 81 77 89 W3 29.98F VIDALIA N/A 79 73 83 SW6 29.99F ALMA CLEAR 76 73 91 W6 29.99F 6HR MIN TEMP: 76; 6HR MAX TEMP: 85; WAYCROSS CLEAR 79 77 94 W3 30.00S JESUP NOT AVBL BRUNSWICK PTCLDY 79 72 78 CALM 30.01R SAINT SIMONS PTCLDY 80 73 79 W8 30.00R 6HR MIN TEMP: 80; 6HR MAX TEMP: 85; $$ SCZ027-028-034-036>038-045-046-048>050-GAZ119-141-250700- ...LAKE AND SUPPLEMENTAL COASTAL OBSERVATIONS... STATION/POSITION TIME TEMP WIND PRES WAVE SWELL AIR SEA DIR/SP/G HT/PER HT/PER/DIR (UTC) (F) (DEG/KT/KT) (MB) (FT/S) (FT/S/D) UPR LAKE MARION NOT AVBL WINYAH BAY 0500 79 350/ 4 1014.0S LAKE MURRAY 0500 80 280/ 2/ 5 1013.9R ACE BASIN NERRS 0500 82 CALM 1014.0F FORT PULASKI 0600 81 230/ 4/ 7 1015.4S SAPELO ISLAND 0500 81 270/ 6 1016.0S $$ ANZ835-935-AMZ111-154-330-350-352-354-374-450-454-472-250700- ...C-MAN AND BUOY OBSERVATIONS... STATION/POSITION TIME TEMP WIND PRES WAVE SWELL AIR SEA DIR/SP/G HT/PER HT/PER/DIR (UTC) (F) (DEG/KT/KT) (MB) (FT/S) (FT/S/D) FOLLY BEACH CMAN 0500 83 230/ 14/ 20 1014.8R BUOY 41004 0600 83 83 220/ 17/ 21 1013.5F 4/ 5 2/ 8 BUOY 41008 0600 83 85 260/ 14/ 16 1015.5R 3/ 5 5E ST. MARYS GA 0600 85 N/A 3/ 5 FRYING PAN BUOY NOT AVBL BUOY 41025 0600 VRB 4/ 8 1012.8R 3/ 7 3/160/ 7 CAPE LOOKOUT NC 0600 72 350/ 6/ 6 1013.6F BUOY 41002 0529 82 82 230/ 19/ 23 1016.1F 5/ 6 2/160/14 BUOY 41010 0600 83 83 200/ 14/ 16 1017.6F 3/ 4 2/140/ 7 BUOY 41012 NOT AVBL ST AUGUSTINE FL 0600 79 240/ 5/ 6 1017.2F CAPERS NEARSHORE 0500 84 240/ 19/ 21 N/A FRIPP NEARSHORE NOT AVBL $$

USA.gov is the U.S. government's official web portal to all federal, state and local government web resources and services.